Volver al catálogo

FENGYUN 1C DEB

ActivoPO
NORAD 32123·DEBRIS·🇨🇳 China

Lanzado May 10, 1999 desde Taiyuan Satellite Launch Center

Loading…

Próximos Pases (próximas 24 horas)

TLE

ActualizadoSource: Space-Track

Época: Sep 13, 2026, 12:05 UTC

1 32123U 99025CRR 26256.50390933  .00000871  00000-0  15526-3 0  9997
2 32123  98.9500  92.0152 0158804 171.0200 219.8879 14.62203990753892

Sigue FENGYUN 1C DEB en tiempo real con AllMySat

Download on the App Store